SCP
0 0 0 0 0 0 0 0 0 0 0 0 0 0 0 0 -0 0 -0 -0 0 0 0 0 0 0 0 0 0 0 0 0 0 0 0 0 0 0 0 0 0 0 0 0
0 0 0 0 0 0 0 0 0 0 0 0 0 0 0 0 -0 0 0 0 0 0 0 0 0 0 0 0 0 0 0 0 0 0 0 0 0 0 0 0 0 0 0 0
0 0 0 0 0 0 0 0 0 0 0 0 0 -0 -0 0 0 0 0 0 0 0 0 0 0 0 0 0 0 0 0 0 0 0 0 0 0 0 0 0 0 0 0 0
0 0 0 0 0 0 0 0 0 0 0 0 0 -0 -0 0 0 0 0 0 0 0 0 0 0 0 0 0 0 0 0 0 0 0 0 0 0 0 0 0 0 0 0 0
0 0 0 0 0 0 0 0 0 0 0 0 0 0 -0 0 0 0 0 0 0 0 0 0 0 0 0 0 0 0 0 0 0 0 0 0 0 0 0 0 0 0 0 0
0 0 0 0 0 0 0 0 0 0 0 0 0 0 0 0 0 0 0 0 0 0 0 0 0 0 0 0 0 0 0 0 0 0 0 0 0 0 0 0 0 0 0 0
0 0 0 0 0 0 0 0 0 0 0 0 0 0 0 0 0 0 0 0 0 0 0 0 0 0 0 0 0 0 0 0 0 0 0 0 0 0 0 0 0 0 0 0
0 0 0 0 0 0 0 0 0 0 0 0 0 0 0 0 0 0 0 0 0 -0 0 0 0 0 0 0 0 0 0 0 0 0 0 0 0 0 0 0 0 0 0 0
0 0 0 0 0 0 0 0 0 0 0 0 0 0 0 0 0 0 0 0 0 0 0 0 0 0 0 0 0 0 0 0 0 0 0 0 0 0 0 0 0 0 0 0
0 0 0 0 0 0 0 0 0 0 0 0 0 0 0 0 0 0 0 0 0 0 0 0 0 0 0 0 0 0 0 0 0 0 0 0 0 0 0 0 0 0 0 0
0 0 0 0 0 0 0 0 0 0 0 0 0 0 0 0 0 0 0 0 0 0 0 0 0 0 0 0 0 -0 -0 0 0 0 0 0 0 0 0 0 0 0 0 0
0 0 0 0 0 0 0 0 0 0 0 0 0 0 0 0 0 0 0 0 0 0 0 0 0 0 0 0 0 -0 0 0 0 0 0 0 0 0 0 0 0 0 0 0
0 0 0 0 0 0 0 0 0 0 0 0 0 0 0 0 0 0 0 0 0 0 0 0 0 0 0 0 0 0 0 0 0 0 0 0 0 0 0 0 0 0 0 0
0 0 0 0 0 0 0 0 0 0 0 0 0 0 0 0 0 0 0 0 0 0 -0 -0 -0 -0 0 0 0 0 0 0 0 0 0 0 0 0 0 0 0 0 0 0
0 0 0 0 0 0 0 0 0 0 0 0 0 0 0 0 0 0 0 0 0 0 0 0 0 0 0 0 0 0 0 0 0 0 0 0 0 0 0 0 0 0 0 0
0 0 0 0 0 0 0 0 0 0 0 0 0 0 0 0 0 0 0 0 0 0 0 0 0 0 0 0 0 0 0 0 0 0 0 0 0 0 0 0 0 0 0 0
-0 0 0 0 0 0 0 0 0 0 0 0 0 0 0 0 0 0 0 0 0 0 0 0 0 0 0 0 0 0 0 0 0 0 0 0 0 0 0 0 0 0 0 0
0 0 0 0 0 0 0 0 0 0 0 0 0 0 0 0 0 0 0 0 0 0 0 0 0 0 0 0 0 0 0 0 0 0 0 0 0 0 0 0 0 0 0 0
0 0 0 0 0 0 0 0 0 0 0 0 0 0 0 0 0 0 0 0 0 0 0 0 0 0 0 0 0 0 0 0 0 0 0 0 0 0 0 0 0 0 0 0
0 0 0 0 0 0 0 0 0 0 0 0 0 0 0 0 0 0 0 0 0 0 0 0 0 0 0 0 0 0 0 0 0 0 0 0 0 0 0 0 0 0 0 0
0 0 0 0 0 0 0 0 0 0 0 0 0 0 0 0 0 0 0 0 0 0 0 0 0 0 0 0 0 0 0 0 0 0 0 0 0 0 0 0 0 0 0 0
0 0 0 0 0 0 0 0 0 0 0 0 0 0 0 0 0 0 0 0 0 0 0 0 0 0 0 0 0 0 0 0 0 0 0 0 0 0 0 0 0 0 0 0
0 0 0 0 0 0 0 0 0 0 0 0 0 0 0 0 0 0 0 0 0 0 0 0 0 0 0 0 0 0 0 0 0 0 0 0 0 0 0 0 0 0 0 0
0 0 0 0 0 0 0 0 0 0 0 0 0 0 0 0 0 0 0 0 0 0 0 0 0 0 0 0 0 0 0 0 0 0 0 0 0 0 0 0 0 0 0 0
0 0 0 0 0 0 0 0 0 0 0 0 0 0 0 0 0 0 0 0 0 0 0 0 0 0 0 0 0 0 0 0 0 0 0 0 0 0 0 0 0 0 0 0
-0 0 0 0 0 0 0 -0 0 -0 0 0 0 0 0 0 0 0 0 0 0 0 0 0 0 0 0 0 0 0 0 0 0 0 0 0 0 0 0 0 0 0 0 0
Wind_Speed_500mb
3 11 20 26 19 1 7 4 9 4 1 7 23 36 35 47 43 45 51 52 53 60 58 54 57 63 68 72 74 74 72 70 70 71 69 68 69 68 71 72 67 63 65 66
7 19 17 11 12 8 9 11 19 6 3 9 20 41 37 47 58 51 57 60 64 65 65 69 67 64 69 73 76 78 77 74 73 74 72 69 68 68 69 71 65 65 62 65
21 4 14 16 14 17 14 19 15 11 2 13 17 30 23 15 36 46 60 66 67 72 66 53 67 73 69 73 77 79 79 77 77 75 76 75 70 68 69 73 68 68 67 66
14 10 10 15 16 20 19 20 8 7 6 11 4 16 35 26 29 28 50 52 60 58 53 57 61 72 71 72 72 78 81 81 80 79 82 78 75 75 74 76 72 67 64 64
11 20 19 15 11 25 4 8 8 1 8 11 14 12 18 5 19 30 42 48 49 47 45 51 52 52 50 61 72 74 79 84 86 87 86 81 79 77 75 76 73 70 71 71
1 2 7 4 7 8 25 12 8 4 3 15 12 17 15 15 10 6 14 24 24 23 20 21 24 33 40 46 55 62 71 80 87 92 91 89 84 82 79 76 78 78 77 77
7 10 6 8 14 8 10 17 6 8 8 17 7 14 23 18 23 14 27 46 19 30 29 28 22 21 24 28 37 49 59 71 81 91 92 91 86 83 79 79 80 81 82 84
24 20 27 20 26 18 25 18 12 12 10 11 5 19 11 18 23 36 47 56 48 48 38 27 21 22 27 30 35 40 46 52 64 76 86 87 83 84 79 80 80 80 80 77
15 15 4 2 4 22 14 21 17 11 4 8 17 36 34 28 31 37 52 30 37 43 43 28 19 19 20 22 24 28 35 41 53 57 70 83 87 86 82 79 78 75 76 71
9 12 1 5 5 2 14 14 9 9 12 15 22 24 27 10 11 14 6 17 22 24 22 32 28 17 13 17 19 21 26 31 39 44 55 73 82 83 79 77 77 80 75 72
19 8 5 5 19 27 12 16 6 6 8 10 10 17 10 17 15 13 9 13 8 11 1 14 16 10 12 13 16 16 16 21 30 37 47 61 74 79 77 79 76 82 75 78
9 3 15 19 1 5 8 23 34 13 12 8 7 27 11 10 5 8 14 11 10 6 9 5 11 11 9 15 21 21 18 22 27 33 41 51 64 74 79 80 79 77 80 80
15 5 5 7 6 3 15 18 27 31 4 20 19 23 4 7 18 30 30 16 8 3 19 29 27 26 32 28 24 34 34 26 29 37 45 48 59 74 80 81 80 79 81 83
26 16 19 28 19 5 16 25 35 35 17 39 34 56 52 25 14 16 17 23 34 39 58 53 59 62 56 56 42 41 44 40 38 41 50 55 61 70 79 81 80 77 79 82
12 26 39 50 43 14 13 15 32 39 50 37 53 50 67 40 38 51 56 66 75 73 81 79 87 88 80 71 66 59 43 51 51 53 56 62 62 68 76 82 81 77 77 81
10 9 19 36 38 37 36 38 39 48 51 44 62 57 67 65 60 39 45 48 53 68 84 90 93 90 81 79 74 65 56 54 59 60 65 66 67 68 74 78 79 79 77 82
14 10 9 26 33 33 26 54 58 50 48 50 45 65 48 49 39 51 62 49 62 68 83 88 85 86 82 71 72 67 65 64 68 69 65 63 65 67 68 73 78 80 80 83
20 14 8 15 19 33 26 36 41 57 55 54 47 53 62 64 66 85 58 56 80 88 88 88 89 78 73 69 66 65 58 55 55 56 56 55 59 62 64 69 75 78 78 80
27 29 19 16 31 31 21 24 32 30 55 49 52 60 75 84 64 82 90 76 85 84 74 66 65 57 49 42 37 37 39 41 43 43 44 46 51 55 60 65 70 74 76 79
41 41 24 21 26 40 36 39 41 9 27 41 38 47 54 66 29 42 57 52 39 42 36 35 30 28 24 24 34 43 40 36 35 33 33 35 40 45 48 51 58 63 66 68
10 15 41 42 35 20 11 23 13 13 9 36 29 57 60 37 45 65 37 36 34 31 32 31 32 39 41 39 34 33 30 28 29 27 25 26 27 28 32 37 44 48 53 56
15 10 18 20 24 40 8 3 20 11 44 40 40 34 41 49 58 57 59 44 38 39 38 37 36 31 25 23 20 17 17 15 15 16 16 17 17 17 20 24 30 34 37 41
26 24 19 12 4 11 17 16 36 56 36 58 50 55 50 56 55 43 44 37 30 30 28 22 20 19 17 14 11 10 9 8 7 7 8 7 8 9 10 12 17 22 26 30
33 14 13 4 9 13 26 54 55 68 64 69 72 70 73 70 64 53 41 33 25 23 25 23 21 24 27 27 27 22 19 20 22 25 27 27 23 22 22 20 16 13 14 16
17 9 5 21 29 50 68 71 59 71 69 63 69 87 84 61 62 52 42 30 26 30 35 36 34 29 30 31 30 33 33 31 29 29 28 27 25 25 26 23 22 20 13 14
34 37 26 30 46 39 59 46 30 37 56 76 71 84 83 61 59 48 42 37 42 45 40 37 37 38 35 31 28 27 24 26 25 25 22 20 18 17 14 12 13 12 11 12
Wind_Direction_500mb
104 208 216 214 210 124 125 187 255 207 115 269 256 267 269 271 266 262 260 259 258 256 256 252 246 242 239 237 237 236 237 237 236 237 237 236 236 234 231 229 228 224 221 223
167 225 238 102 149 176 209 245 255 264 234 234 284 280 276 264 260 256 258 256 253 257 256 254 251 245 239 239 239 239 239 239 239 240 242 241 242 239 232 228 229 221 220 224
215 151 157 165 172 196 222 235 244 266 285 241 293 276 258 257 254 258 255 254 257 254 255 251 252 249 245 241 240 241 242 242 241 240 239 239 239 237 230 225 225 219 217 221
234 163 151 170 208 198 234 219 240 251 281 273 278 289 281 273 257 251 260 255 257 260 261 260 252 255 250 248 246 243 243 243 243 241 241 241 242 240 235 230 228 221 218 219
190 181 175 190 191 184 230 124 169 170 258 307 193 249 267 255 265 249 254 257 260 266 269 277 270 265 259 247 246 246 245 244 244 243 243 242 240 240 239 232 225 224 219 222
8 66 206 214 91 172 141 98 74 70 301 262 228 230 253 252 247 289 257 262 272 274 283 281 266 256 251 244 241 240 240 243 242 241 240 240 240 240 238 230 223 224 224 221
167 208 178 160 115 95 203 163 209 232 200 252 33 258 253 262 259 252 283 291 294 286 285 284 268 265 257 248 241 239 239 242 242 241 240 240 239 240 238 232 224 224 225 223
208 227 183 181 213 174 197 206 208 227 220 281 107 244 249 241 263 271 266 270 281 285 285 273 260 254 253 250 250 251 250 249 248 244 241 238 237 239 238 234 229 229 231 234
185 240 210 254 147 177 183 213 245 266 95 295 256 265 266 252 265 243 254 277 286 285 271 257 238 248 250 256 259 261 260 258 255 252 244 240 239 240 239 235 228 231 232 233
200 252 105 160 138 1 210 149 162 209 213 232 251 267 256 281 269 270 279 279 290 294 270 225 222 220 238 255 258 263 270 271 269 262 252 243 240 239 239 237 231 226 233 231
207 218 99 165 208 177 172 209 207 204 222 238 261 251 208 237 249 275 339 309 334 335 20 188 188 203 229 247 257 257 272 283 279 274 260 247 240 238 238 238 233 231 231 228
195 351 232 213 55 321 266 226 195 207 196 244 287 266 169 217 175 251 270 303 310 346 8 244 227 223 267 273 274 268 266 283 284 282 270 256 243 238 238 238 236 233 229 228
151 190 256 264 214 200 222 205 220 230 53 214 221 255 79 264 289 275 266 274 221 286 318 309 295 281 279 281 278 271 263 266 276 278 276 263 247 238 237 239 239 235 229 228
184 166 205 243 267 141 204 207 207 202 216 238 233 252 258 237 260 275 269 278 287 300 305 301 301 298 286 273 268 287 266 260 267 268 273 268 255 245 240 239 240 237 232 231
228 232 219 237 243 210 217 204 206 213 228 231 250 241 259 256 258 259 269 278 285 288 282 286 290 290 287 285 280 283 271 274 277 269 269 268 258 248 242 241 241 240 233 234
329 269 267 256 239 244 255 255 242 224 232 240 247 255 253 265 272 266 256 258 270 274 277 282 287 288 282 283 286 281 273 270 266 272 270 266 260 253 246 243 241 240 237 235
204 183 200 247 259 256 241 233 236 241 236 234 240 248 267 268 269 269 265 266 263 266 274 280 281 284 286 281 282 280 281 276 270 266 262 260 259 257 251 246 243 241 239 237
252 234 221 270 288 261 244 250 238 236 244 243 250 259 258 259 267 272 267 263 269 274 277 279 283 284 284 279 275 275 272 272 269 265 261 258 256 255 251 246 245 243 241 241
232 244 244 237 255 271 287 259 232 229 248 244 239 246 257 265 272 277 267 261 261 273 276 278 280 282 277 273 270 268 267 266 266 263 261 258 257 255 251 247 244 243 240 240
214 219 242 238 247 254 258 266 254 195 246 251 231 240 250 258 254 260 278 270 259 264 264 270 268 272 272 268 279 278 271 266 265 262 258 253 251 251 251 249 246 244 242 242
190 213 228 235 243 247 224 247 157 204 273 325 263 240 250 247 239 263 278 260 256 258 255 254 256 270 271 271 270 265 260 257 256 255 253 250 247 246 243 242 240 239 239 239
247 238 214 226 238 252 18 206 239 321 323 316 308 286 276 276 273 262 262 260 261 265 266 262 257 254 252 254 250 251 250 250 251 249 246 241 234 229 225 226 230 230 231 236
249 238 256 223 284 174 269 249 298 304 304 309 301 300 288 295 286 276 266 263 253 250 252 240 226 222 213 195 164 157 139 115 117 131 140 143 154 164 178 195 205 210 213 221
247 210 241 323 229 242 275 293 290 293 274 281 279 281 283 281 280 269 260 254 241 218 208 197 184 163 146 134 128 129 125 123 119 119 117 115 116 124 129 137 151 181 203 207
290 347 278 276 268 271 271 274 276 275 270 284 288 278 270 276 266 257 248 225 198 180 166 156 154 152 144 136 132 124 122 115 117 114 113 116 122 131 136 147 159 172 192 213
252 251 250 257 269 273 281 275 260 266 279 274 267 275 271 257 249 236 215 196 178 169 166 161 154 150 145 142 139 138 140 134 130 123 115 112 115 118 133 152 159 166 184 206
Wind_Speed_850mb
3 11 20 26 19 1 7 4 9 4 1 7 23 36 35 47 43 45 51 52 53 60 58 54 57 63 68 72 74 74 72 70 70 71 69 68 69 68 71 72 67 63 65 66
7 19 17 11 12 8 9 11 19 6 3 9 20 41 37 47 58 51 57 60 64 65 65 69 67 64 69 73 76 78 77 74 73 74 72 69 68 68 69 71 65 65 62 65
21 4 14 16 14 17 14 19 15 11 2 13 17 30 23 15 36 46 60 66 67 72 66 53 67 73 69 73 77 79 79 77 77 75 76 75 70 68 69 73 68 68 67 66
14 10 10 15 16 20 19 20 8 7 6 11 4 16 35 26 29 28 50 52 60 58 53 57 61 72 71 72 72 78 81 81 80 79 82 78 75 75 74 76 72 67 64 64
11 20 19 15 11 25 4 8 8 1 8 11 14 12 18 5 19 30 42 48 49 47 45 51 52 52 50 61 72 74 79 84 86 87 86 81 79 77 75 76 73 70 71 71
1 2 7 4 7 8 25 12 8 4 3 15 12 17 15 15 10 6 14 24 24 23 20 21 24 33 40 46 55 62 71 80 87 92 91 89 84 82 79 76 78 78 77 77
7 10 6 8 14 8 10 17 6 8 8 17 7 14 23 18 23 14 27 46 19 30 29 28 22 21 24 28 37 49 59 71 81 91 92 91 86 83 79 79 80 81 82 84
24 20 27 20 26 18 25 18 12 12 10 11 5 19 11 18 23 36 47 56 48 48 38 27 21 22 27 30 35 40 46 52 64 76 86 87 83 84 79 80 80 80 80 77
15 15 4 2 4 22 14 21 17 11 4 8 17 36 34 28 31 37 52 30 37 43 43 28 19 19 20 22 24 28 35 41 53 57 70 83 87 86 82 79 78 75 76 71
9 12 1 5 5 2 14 14 9 9 12 15 22 24 27 10 11 14 6 17 22 24 22 32 28 17 13 17 19 21 26 31 39 44 55 73 82 83 79 77 77 80 75 72
19 8 5 5 19 27 12 16 6 6 8 10 10 17 10 17 15 13 9 13 8 11 1 14 16 10 12 13 16 16 16 21 30 37 47 61 74 79 77 79 76 82 75 78
9 3 15 19 1 5 8 23 34 13 12 8 7 27 11 10 5 8 14 11 10 6 9 5 11 11 9 15 21 21 18 22 27 33 41 51 64 74 79 80 79 77 80 80
15 5 5 7 6 3 15 18 27 31 4 20 19 23 4 7 18 30 30 16 8 3 19 29 27 26 32 28 24 34 34 26 29 37 45 48 59 74 80 81 80 79 81 83
26 16 19 28 19 5 16 25 35 35 17 39 34 56 52 25 14 16 17 23 34 39 58 53 59 62 56 56 42 41 44 40 38 41 50 55 61 70 79 81 80 77 79 82
12 26 39 50 43 14 13 15 32 39 50 37 53 50 67 40 38 51 56 66 75 73 81 79 87 88 80 71 66 59 43 51 51 53 56 62 62 68 76 82 81 77 77 81
10 9 19 36 38 37 36 38 39 48 51 44 62 57 67 65 60 39 45 48 53 68 84 90 93 90 81 79 74 65 56 54 59 60 65 66 67 68 74 78 79 79 77 82
14 10 9 26 33 33 26 54 58 50 48 50 45 65 48 49 39 51 62 49 62 68 83 88 85 86 82 71 72 67 65 64 68 69 65 63 65 67 68 73 78 80 80 83
20 14 8 15 19 33 26 36 41 57 55 54 47 53 62 64 66 85 58 56 80 88 88 88 89 78 73 69 66 65 58 55 55 56 56 55 59 62 64 69 75 78 78 80
27 29 19 16 31 31 21 24 32 30 55 49 52 60 75 84 64 82 90 76 85 84 74 66 65 57 49 42 37 37 39 41 43 43 44 46 51 55 60 65 70 74 76 79
41 41 24 21 26 40 36 39 41 9 27 41 38 47 54 66 29 42 57 52 39 42 36 35 30 28 24 24 34 43 40 36 35 33 33 35 40 45 48 51 58 63 66 68
10 15 41 42 35 20 11 23 13 13 9 36 29 57 60 37 45 65 37 36 34 31 32 31 32 39 41 39 34 33 30 28 29 27 25 26 27 28 32 37 44 48 53 56
15 10 18 20 24 40 8 3 20 11 44 40 40 34 41 49 58 57 59 44 38 39 38 37 36 31 25 23 20 17 17 15 15 16 16 17 17 17 20 24 30 34 37 41
26 24 19 12 4 11 17 16 36 56 36 58 50 55 50 56 55 43 44 37 30 30 28 22 20 19 17 14 11 10 9 8 7 7 8 7 8 9 10 12 17 22 26 30
33 14 13 4 9 13 26 54 55 68 64 69 72 70 73 70 64 53 41 33 25 23 25 23 21 24 27 27 27 22 19 20 22 25 27 27 23 22 22 20 16 13 14 16
17 9 5 21 29 50 68 71 59 71 69 63 69 87 84 61 62 52 42 30 26 30 35 36 34 29 30 31 30 33 33 31 29 29 28 27 25 25 26 23 22 20 13 14
34 37 26 30 46 39 59 46 30 37 56 76 71 84 83 61 59 48 42 37 42 45 40 37 37 38 35 31 28 27 24 26 25 25 22 20 18 17 14 12 13 12 11 12
Wind_Direction_850mb
104 208 216 214 210 124 125 187 255 207 115 269 256 267 269 271 266 262 260 259 258 256 256 252 246 242 239 237 237 236 237 237 236 237 237 236 236 234 231 229 228 224 221 223
167 225 238 102 149 176 209 245 255 264 234 234 284 280 276 264 260 256 258 256 253 257 256 254 251 245 239 239 239 239 239 239 239 240 242 241 242 239 232 228 229 221 220 224
215 151 157 165 172 196 222 235 244 266 285 241 293 276 258 257 254 258 255 254 257 254 255 251 252 249 245 241 240 241 242 242 241 240 239 239 239 237 230 225 225 219 217 221
234 163 151 170 208 198 234 219 240 251 281 273 278 289 281 273 257 251 260 255 257 260 261 260 252 255 250 248 246 243 243 243 243 241 241 241 242 240 235 230 228 221 218 219
190 181 175 190 191 184 230 124 169 170 258 307 193 249 267 255 265 249 254 257 260 266 269 277 270 265 259 247 246 246 245 244 244 243 243 242 240 240 239 232 225 224 219 222
8 66 206 214 91 172 141 98 74 70 301 262 228 230 253 252 247 289 257 262 272 274 283 281 266 256 251 244 241 240 240 243 242 241 240 240 240 240 238 230 223 224 224 221
167 208 178 160 115 95 203 163 209 232 200 252 33 258 253 262 259 252 283 291 294 286 285 284 268 265 257 248 241 239 239 242 242 241 240 240 239 240 238 232 224 224 225 223
208 227 183 181 213 174 197 206 208 227 220 281 107 244 249 241 263 271 266 270 281 285 285 273 260 254 253 250 250 251 250 249 248 244 241 238 237 239 238 234 229 229 231 234
185 240 210 254 147 177 183 213 245 266 95 295 256 265 266 252 265 243 254 277 286 285 271 257 238 248 250 256 259 261 260 258 255 252 244 240 239 240 239 235 228 231 232 233
200 252 105 160 138 1 210 149 162 209 213 232 251 267 256 281 269 270 279 279 290 294 270 225 222 220 238 255 258 263 270 271 269 262 252 243 240 239 239 237 231 226 233 231
207 218 99 165 208 177 172 209 207 204 222 238 261 251 208 237 249 275 339 309 334 335 20 188 188 203 229 247 257 257 272 283 279 274 260 247 240 238 238 238 233 231 231 228
195 351 232 213 55 321 266 226 195 207 196 244 287 266 169 217 175 251 270 303 310 346 8 244 227 223 267 273 274 268 266 283 284 282 270 256 243 238 238 238 236 233 229 228
151 190 256 264 214 200 222 205 220 230 53 214 221 255 79 264 289 275 266 274 221 286 318 309 295 281 279 281 278 271 263 266 276 278 276 263 247 238 237 239 239 235 229 228
184 166 205 243 267 141 204 207 207 202 216 238 233 252 258 237 260 275 269 278 287 300 305 301 301 298 286 273 268 287 266 260 267 268 273 268 255 245 240 239 240 237 232 231
228 232 219 237 243 210 217 204 206 213 228 231 250 241 259 256 258 259 269 278 285 288 282 286 290 290 287 285 280 283 271 274 277 269 269 268 258 248 242 241 241 240 233 234
329 269 267 256 239 244 255 255 242 224 232 240 247 255 253 265 272 266 256 258 270 274 277 282 287 288 282 283 286 281 273 270 266 272 270 266 260 253 246 243 241 240 237 235
204 183 200 247 259 256 241 233 236 241 236 234 240 248 267 268 269 269 265 266 263 266 274 280 281 284 286 281 282 280 281 276 270 266 262 260 259 257 251 246 243 241 239 237
252 234 221 270 288 261 244 250 238 236 244 243 250 259 258 259 267 272 267 263 269 274 277 279 283 284 284 279 275 275 272 272 269 265 261 258 256 255 251 246 245 243 241 241
232 244 244 237 255 271 287 259 232 229 248 244 239 246 257 265 272 277 267 261 261 273 276 278 280 282 277 273 270 268 267 266 266 263 261 258 257 255 251 247 244 243 240 240
214 219 242 238 247 254 258 266 254 195 246 251 231 240 250 258 254 260 278 270 259 264 264 270 268 272 272 268 279 278 271 266 265 262 258 253 251 251 251 249 246 244 242 242
190 213 228 235 243 247 224 247 157 204 273 325 263 240 250 247 239 263 278 260 256 258 255 254 256 270 271 271 270 265 260 257 256 255 253 250 247 246 243 242 240 239 239 239
247 238 214 226 238 252 18 206 239 321 323 316 308 286 276 276 273 262 262 260 261 265 266 262 257 254 252 254 250 251 250 250 251 249 246 241 234 229 225 226 230 230 231 236
249 238 256 223 284 174 269 249 298 304 304 309 301 300 288 295 286 276 266 263 253 250 252 240 226 222 213 195 164 157 139 115 117 131 140 143 154 164 178 195 205 210 213 221
247 210 241 323 229 242 275 293 290 293 274 281 279 281 283 281 280 269 260 254 241 218 208 197 184 163 146 134 128 129 125 123 119 119 117 115 116 124 129 137 151 181 203 207
290 347 278 276 268 271 271 274 276 275 270 284 288 278 270 276 266 257 248 225 198 180 166 156 154 152 144 136 132 124 122 115 117 114 113 116 122 131 136 147 159 172 192 213
252 251 250 257 269 273 281 275 260 266 279 274 267 275 271 257 249 236 215 196 178 169 166 161 154 150 145 142 139 138 140 134 130 123 115 112 115 118 133 152 159 166 184 206